| time (UTC) | temp C | wind direction | speed KPH | gust KPH | rain 1hr cm | rain 24hr cm | rain mn cm | humidity % | barometer mb |
| 20260507161432 | 25 | 52 | 16.1 | 30.6 | 0.00 | 0.00 | 0.00 | 74 | 1019.8 |
| 20260507160932 | 25 | 38 | 17.7 | 30.6 | 0.00 | 0.00 | 0.00 | 74 | 1019.8 |
| 20260507160432 | 25 | 76 | 16.1 | 25.7 | 0.00 | 0.00 | 0.00 | 74 | 1019.8 |
| 20260507155933 | 25 | 79 | 11.3 | 25.7 | 0.00 | 0.00 | 0.00 | 74 | 1019.6 |
| 20260507155801 | 25 | 100 | 17.7 | 25.7 | 0.00 | 0.00 | 0.00 | 74 | 1019.7 |
| 20260507155305 | 25 | 102 | 14.5 | 24.1 | 0.00 | 0.00 | 0.00 | 74 | 1019.7 |
| 20260507154432 | 24 | 108 | 16.1 | 24.1 | 0.00 | 0.00 | 0.00 | 75 | 1019.5 |
| 20260507153931 | 24 | 24 | 14.5 | 29.0 | 0.00 | 0.00 | 0.00 | 76 | 1019.5 |
| 20260507153431 | 24 | 52 | 14.5 | 29.0 | 0.00 | 0.00 | 0.00 | 76 | 1019.5 |
| 20260507153352 | 24 | 74 | 12.9 | 27.4 | 0.00 | 0.00 | 0.00 | 75 | 1019.5 |
| 20260507152432 | 24 | 106 | 12.9 | 25.7 | 0.00 | 0.00 | 0.00 | 77 | 1019.4 |
| 20260507151932 | 23 | 99 | 11.3 | 25.7 | 0.00 | 0.00 | 0.00 | 79 | 1019.5 |
| 20260507151807 | 23 | 34 | 11.3 | 30.6 | 0.00 | 0.00 | 0.00 | 79 | 1019.6 |
| 20260507151304 | 23 | 34 | 19.3 | 30.6 | 0.00 | 0.00 | 0.00 | 78 | 1019.5 |
| 20260507150432 | 23 | 77 | 14.5 | 27.4 | 0.00 | 0.00 | 0.00 | 79 | 1019.6 |
| 20260507145935 | 23 | 84 | 12.9 | 27.4 | 0.00 | 0.00 | 0.00 | 77 | 1019.6 |
| 20260507145708 | 22 | 74 | 11.3 | 24.1 | 0.00 | 0.00 | 0.00 | 81 | 1019.5 |
| 20260507145610 | 23 | 113 | 14.5 | 24.1 | 0.00 | 0.00 | 0.00 | 78 | 1019.7 |
| 20260507145000 | 23 | 78 | 12.9 | 20.9 | 0.00 | 0.00 | 0.00 | 79 | 1019.5 |
| 20260507144944 | 23 | 97 | 12.9 | 24.1 | 0.00 | 0.00 | 0.00 | 79 | 1019.6 |
| 20260507143430 | 22 | 66 | 11.3 | 24.1 | 0.00 | 0.00 | 0.00 | 83 | 1019.6 |
| 20260507143341 | 22 | 85 | 12.9 | 20.9 | 0.00 | 0.00 | 0.00 | 82 | 1019.6 |
| 20260507142626 | 22 | 57 | 11.3 | 20.9 | 0.00 | 0.00 | 0.00 | 83 | 1019.6 |
| 20260507142538 | 22 | 76 | 11.3 | 19.3 | 0.00 | 0.00 | 0.00 | 83 | 1019.6 |
| 20260507141431 | 22 | 55 | 12.9 | 20.9 | 0.00 | 0.00 | 0.00 | 82 | 1019.7 |
| 20260507140932 | 22 | 98 | 6.4 | 14.5 | 0.00 | 0.00 | 0.00 | 81 | 1019.6 |
| 20260507140431 | 22 | 101 | 8.0 | 19.3 | 0.00 | 0.00 | 0.00 | 81 | 1019.7 |
| 20260507135932 | 22 | 119 | 11.3 | 20.9 | 0.00 | 0.00 | 0.00 | 81 | 1019.7 |
| 20260507135431 | 22 | 69 | 12.9 | 20.9 | 0.00 | 0.00 | 0.00 | 81 | 1019.6 |
| 20260507134931 | 22 | 83 | 12.9 | 20.9 | 0.00 | 0.00 | 0.00 | 81 | 1019.6 |
| 20260507134432 | 22 | 111 | 9.7 | 24.1 | 0.00 | 0.00 | 0.00 | 81 | 1019.4 |
| 20260507133937 | 22 | 57 | 14.5 | 24.1 | 0.00 | 0.00 | 0.00 | 80 | 1019.4 |
| 20260507133434 | 23 | 30 | 8.0 | 16.1 | 0.00 | 0.00 | 0.00 | 80 | 1019.1 |
| 20260507133209 | 22 | 113 | 9.7 | 19.3 | 0.00 | 0.00 | 0.00 | 81 | 1019.0 |
| 20260507133107 | 22 | 87 | 9.7 | 16.1 | 0.00 | 0.00 | 0.00 | 80 | 1019.1 |
| 20260507131931 | 22 | 99 | 12.9 | 19.3 | 0.00 | 0.00 | 0.00 | 81 | 1019.0 |
| 20260507131431 | 22 | 102 | 8.0 | 14.5 | 0.00 | 0.00 | 0.00 | 81 | 1018.8 |
| 20260507131255 | 22 | 89 | 4.8 | 14.5 | 0.00 | 0.00 | 0.00 | 82 | 1018.7 |
| 20260507130431 | 22 | 82 | 8.0 | 14.5 | 0.00 | 0.00 | 0.00 | 82 | 1018.6 |
| 20260507125923 | 22 | 83 | 4.8 | 12.9 | 0.00 | 0.00 | 0.00 | 82 | 1018.5 |
| 20260507125419 | 21 | 72 | 8.0 | 12.9 | 0.00 | 0.00 | 0.00 | 82 | 1018.3 |
| 20260507125232 | 21 | 96 | 3.2 | 9.7 | 0.00 | 0.00 | 0.00 | 83 | 1018.6 |
| 20260507124714 | 21 | 95 | 4.8 | 9.7 | 0.00 | 0.00 | 0.00 | 84 | 1018.5 |
| 20260507124615 | 21 | 101 | 4.8 | 11.3 | 0.00 | 0.00 | 0.00 | 83 | 1018.5 |
| 20260507124355 | 21 | 99 | 6.4 | 11.3 | 0.00 | 0.00 | 0.00 | 84 | 1018.5 |
| 20260507122904 | 21 | 93 | 4.8 | 9.7 | 0.00 | 0.00 | 0.00 | 84 | 1018.3 |
| 20260507122405 | 21 | 98 | 4.8 | 9.7 | 0.00 | 0.00 | 0.00 | 85 | 1018.3 |
| 20260507122211 | 21 | 96 | 4.8 | 11.3 | 0.00 | 0.00 | 0.00 | 86 | 1018.3 |
| 20260507121848 | 21 | 92 | 6.4 | 9.7 | 0.00 | 0.00 | 0.00 | 87 | 1018.3 |
| 20260507121840 | 21 | 91 | 3.2 | 11.3 | 0.00 | 0.00 | 0.00 | 87 | 1018.2 |
| 20260507120404 | 20 | 118 | 4.8 | 6.4 | 0.00 | 0.00 | 0.00 | 87 | 1018.3 |
| 20260507120208 | 20 | 111 | 3.2 | 6.4 | 0.00 | 0.00 | 0.00 | 87 | 1018.3 |
| 20260507115404 | 20 | 111 | 3.2 | 6.4 | 0.00 | 0.00 | 0.00 | 87 | 1018.5 |
| 20260507115204 | 20 | 111 | 3.2 | 6.4 | 0.00 | 0.00 | 0.00 | 87 | 1018.5 |
| 20260507114403 | 20 | 111 | 4.8 | 6.4 | 0.00 | 0.00 | 0.00 | 87 | 1018.5 |
| 20260507114206 | 20 | 111 | 4.8 | 6.4 | 0.00 | 0.00 | 0.00 | 87 | 1018.2 |
| 20260507113533 | 20 | 110 | 4.8 | 11.3 | 0.00 | 0.00 | 0.00 | 88 | 1018.2 |
| 20260507113459 | 20 | 111 | 1.6 | 9.7 | 0.00 | 0.00 | 0.00 | 87 | 1018.2 |
| 20260507112406 | 20 | 112 | 6.4 | 14.5 | 0.00 | 0.00 | 0.00 | 88 | 1018.1 |
| 20260507111904 | 20 | 104 | 9.7 | 14.5 | 0.00 | 0.00 | 0.00 | 88 | 1018.0 |
| 20260507111403 | 20 | 100 | 6.4 | 12.9 | 0.00 | 0.00 | 0.00 | 88 | 1018.0 |
| 20260507111227 | 20 | 108 | 6.4 | 11.3 | 0.00 | 0.00 | 0.00 | 88 | 1017.8 |
| 20260507110412 | 20 | 99 | 4.8 | 11.3 | 0.00 | 0.00 | 0.00 | 88 | 1017.8 |
| 20260507110216 | 20 | 90 | 4.8 | 11.3 | 0.00 | 0.00 | 0.00 | 88 | 1017.8 |
| 20260507105405 | 20 | 94 | 3.2 | 6.4 | 0.00 | 0.00 | 0.00 | 87 | 1017.8 |
| 20260507104902 | 20 | 95 | 1.6 | 6.4 | 0.00 | 0.00 | 0.00 | 87 | 1017.7 |
| 20260507104403 | 20 | 94 | 3.2 | 4.8 | 0.00 | 0.00 | 0.00 | 86 | 1017.7 |
| 20260507104223 | 20 | 94 | 3.2 | 4.8 | 0.00 | 0.00 | 0.00 | 86 | 1017.6 |
| 20260507103405 | 20 | 94 | 3.2 | 6.4 | 0.00 | 0.00 | 0.00 | 86 | 1017.5 |
| 20260507103219 | 20 | 94 | 3.2 | 6.4 | 0.00 | 0.00 | 0.00 | 87 | 1017.6 |
| 20260507102406 | 20 | 93 | 3.2 | 6.4 | 0.00 | 0.00 | 0.00 | 87 | 1017.6 |
| 20260507101905 | 20 | 93 | 4.8 | 9.7 | 0.00 | 0.00 | 0.00 | 87 | 1017.5 |
| 20260507101403 | 20 | 92 | 6.4 | 12.9 | 0.00 | 0.00 | 0.00 | 88 | 1017.3 |
| 20260507100904 | 20 | 88 | 6.4 | 12.9 | 0.00 | 0.00 | 0.00 | 88 | 1017.3 |
| 20260507100404 | 20 | 109 | 9.7 | 17.7 | 0.00 | 0.00 | 0.00 | 87 | 1017.3 |
| 20260507095906 | 20 | 103 | 9.7 | 17.7 | 0.00 | 0.00 | 0.00 | 87 | 1017.2 |
| 20260507095406 | 20 | 71 | 8.0 | 16.1 | 0.00 | 0.00 | 0.00 | 87 | 1017.2 |
| 20260507094906 | 20 | 97 | 8.0 | 17.7 | 0.00 | 0.00 | 0.00 | 87 | 1017.2 |
| 20260507094404 | 20 | 94 | 9.7 | 17.7 | 0.00 | 0.00 | 0.00 | 87 | 1017.2 |
| 20260507093905 | 21 | 93 | 8.0 | 16.1 | 0.00 | 0.00 | 0.00 | 86 | 1017.1 |
| 20260507093405 | 21 | 64 | 8.0 | 16.1 | 0.00 | 0.00 | 0.00 | 86 | 1017.2 |
| 20260507092904 | 21 | 108 | 9.7 | 16.1 | 0.00 | 0.00 | 0.00 | 86 | 1017.2 |
| 20260507092811 | 21 | 90 | 8.0 | 16.1 | 0.00 | 0.00 | 0.00 | 85 | 1017.2 |
| 20260507092227 | 20 | 102 | 4.8 | 14.5 | 0.00 | 0.00 | 0.00 | 85 | 1017.2 |
| 20260507091405 | 20 | 87 | 9.7 | 16.1 | 0.00 | 0.00 | 0.00 | 85 | 1017.3 |
| 20260507090903 | 20 | 103 | 11.3 | 16.1 | 0.00 | 0.00 | 0.00 | 86 | 1017.2 |
| 20260507090404 | 20 | 103 | 11.3 | 16.1 | 0.00 | 0.00 | 0.00 | 86 | 1017.2 |
| 20260507085906 | 20 | 123 | 8.0 | 19.3 | 0.00 | 0.00 | 0.00 | 86 | 1017.1 |
| 20260507085427 | 20 | 119 | 14.5 | 19.3 | 0.00 | 0.00 | 0.00 | 86 | 1017.1 |
| 20260507085226 | 21 | 116 | 9.7 | 19.3 | 0.00 | 0.00 | 0.00 | 86 | 1017.2 |
| 20260507084406 | 21 | 116 | 6.4 | 19.3 | 0.00 | 0.00 | 0.00 | 86 | 1017.2 |
| 20260507084224 | 21 | 109 | 11.3 | 16.1 | 0.00 | 0.00 | 0.00 | 85 | 1017.3 |
| 20260507083403 | 21 | 97 | 9.7 | 16.1 | 0.00 | 0.00 | 0.00 | 85 | 1017.2 |
| 20260507083239 | 21 | 103 | 8.0 | 16.1 | 0.00 | 0.00 | 0.00 | 85 | 1017.5 |
| 20260507082416 | 21 | 84 | 4.8 | 16.1 | 0.00 | 0.00 | 0.00 | 84 | 1017.5 |
| 20260507081903 | 21 | 109 | 9.7 | 16.1 | 0.00 | 0.00 | 0.00 | 84 | 1017.5 |
| 20260507081404 | 21 | 96 | 11.3 | 16.1 | 0.00 | 0.00 | 0.00 | 84 | 1017.5 |
| 20260507080903 | 21 | 101 | 11.3 | 16.1 | 0.00 | 0.00 | 0.00 | 85 | 1017.6 |
| 20260507080402 | 21 | 109 | 6.4 | 16.1 | 0.00 | 0.00 | 0.00 | 85 | 1017.6 |
| 20260507075902 | 21 | 107 | 9.7 | 19.3 | 0.00 | 0.00 | 0.00 | 85 | 1017.6 |
| 20260507075403 | 21 | 86 | 9.7 | 19.3 | 0.00 | 0.00 | 0.00 | 85 | 1017.8 |
| 20260507075040 | 21 | 119 | 6.4 | 9.7 | 0.00 | 0.00 | 0.00 | 86 | 1017.9 |
| 20260507074952 | 21 | 113 | 9.7 | 14.5 | 0.00 | 0.00 | 0.00 | 85 | 1017.9 |
| 20260507073849 | 21 | 109 | 4.8 | 9.7 | 0.00 | 0.00 | 0.00 | 86 | 1017.9 |
| 20260507073345 | 21 | 107 | 6.4 | 9.7 | 0.00 | 0.00 | 0.00 | 85 | 1017.9 |
| 20260507072845 | 21 | 107 | 4.8 | 9.7 | 0.00 | 0.00 | 0.00 | 85 | 1017.9 |
| 20260507072354 | 21 | 105 | 6.4 | 11.3 | 0.00 | 0.00 | 0.00 | 85 | 1017.9 |
| 20260507072030 | 21 | 128 | 4.8 | 8.0 | 0.00 | 0.00 | 0.00 | 86 | 1018.1 |
| 20260507071941 | 21 | 103 | 6.4 | 11.3 | 0.00 | 0.00 | 0.00 | 85 | 1018.0 |
| 20260507070833 | 21 | 143 | 4.8 | 11.3 | 0.00 | 0.00 | 0.00 | 87 | 1018.1 |
| 20260507070643 | 21 | 144 | 6.4 | 11.3 | 0.00 | 0.00 | 0.00 | 87 | 1018.2 |
| 20260507065837 | 21 | 113 | 4.8 | 6.4 | 0.00 | 0.00 | 0.00 | 87 | 1018.5 |
| 20260507065342 | 21 | 113 | 3.2 | 9.7 | 0.00 | 0.00 | 0.00 | 87 | 1018.6 |
| 20260507064831 | 20 | 113 | 3.2 | 11.3 | 0.00 | 0.00 | 0.00 | 87 | 1018.7 |
| 20260507064332 | 20 | 92 | 6.4 | 11.3 | 0.00 | 0.00 | 0.00 | 86 | 1018.8 |
| 20260507063832 | 21 | 85 | 4.8 | 14.5 | 0.00 | 0.00 | 0.00 | 85 | 1018.9 |
| 20260507063331 | 21 | 92 | 8.0 | 14.5 | 0.00 | 0.00 | 0.00 | 85 | 1018.9 |
| 20260507062831 | 21 | 94 | 6.4 | 19.3 | 0.00 | 0.00 | 0.00 | 85 | 1018.8 |
| 20260507062332 | 21 | 144 | 9.7 | 19.3 | 0.00 | 0.00 | 0.00 | 86 | 1018.8 |
| 20260507061831 | 21 | 138 | 4.8 | 8.0 | 0.00 | 0.00 | 0.00 | 87 | 1018.9 |
| 20260507061332 | 21 | 139 | 4.8 | 9.7 | 0.00 | 0.00 | 0.00 | 87 | 1018.9 |
| 20260507061010 | 21 | 95 | 3.2 | 6.4 | 0.00 | 0.00 | 0.00 | 88 | 1019.0 |
| 20260507060930 | 21 | 135 | 6.4 | 9.7 | 0.00 | 0.00 | 0.00 | 87 | 1019.0 |
| 20260507055831 | 21 | 93 | 3.2 | 4.8 | 0.00 | 0.00 | 0.00 | 88 | 1019.0 |
| 20260507055330 | 21 | 93 | 3.2 | 6.4 | 0.00 | 0.00 | 0.00 | 87 | 1019.2 |
| 20260507054832 | 20 | 92 | 1.6 | 11.3 | 0.00 | 0.00 | 0.00 | 87 | 1019.4 |
| 20260507054632 | 20 | 92 | 4.8 | 11.3 | 0.00 | 0.00 | 0.00 | 87 | 1019.5 |
| 20260507053832 | 21 | 91 | 4.8 | 12.9 | 0.00 | 0.00 | 0.00 | 87 | 1019.4 |
| 20260507053332 | 21 | 88 | 6.4 | 14.5 | 0.00 | 0.00 | 0.00 | 87 | 1019.5 |
| 20260507052831 | 21 | 57 | 4.8 | 14.5 | 0.00 | 0.00 | 0.00 | 87 | 1019.5 |
| 20260507052331 | 21 | 83 | 8.0 | 12.9 | 0.00 | 0.00 | 0.00 | 86 | 1019.6 |
| 20260507052234 | 21 | 101 | 9.7 | 16.1 | 0.00 | 0.00 | 0.00 | 86 | 1019.6 |
| 20260507051331 | 21 | 129 | 9.7 | 17.7 | 0.00 | 0.00 | 0.00 | 85 | 1019.7 |
| 20260507050831 | 21 | 54 | 8.0 | 17.7 | 0.00 | 0.00 | 0.00 | 85 | 1019.8 |
| 20260507050332 | 21 | 91 | 6.4 | 14.5 | 0.00 | 0.00 | 0.00 | 85 | 1019.9 |
| 20260507050150 | 21 | 63 | 8.0 | 17.7 | 0.00 | 0.00 | 0.00 | 86 | 1019.8 |
| 20260507045332 | 21 | 97 | 14.5 | 17.7 | 0.00 | 0.00 | 0.00 | 87 | 1019.9 |
| 20260507045237 | 21 | 119 | 12.9 | 19.3 | 0.00 | 0.00 | 0.00 | 87 | 1019.9 |
| 20260507044330 | 21 | 110 | 8.0 | 19.3 | 0.00 | 0.00 | 0.00 | 88 | 1019.9 |
| 20260507043831 | 21 | 103 | 8.0 | 19.3 | 0.00 | 0.00 | 0.00 | 88 | 1020.0 |
| 20260507043331 | 21 | 83 | 8.0 | 16.1 | 0.00 | 0.00 | 0.00 | 88 | 1020.0 |
| 20260507042830 | 21 | 85 | 11.3 | 16.1 | 0.00 | 0.00 | 0.00 | 88 | 1020.0 |
| 20260507042331 | 21 | 90 | 11.3 | 16.1 | 0.00 | 0.00 | 0.00 | 88 | 1020.1 |
| 20260507042235 | 21 | 88 | 6.4 | 17.7 | 0.00 | 0.00 | 0.00 | 88 | 1020.0 |
| 20260507041415 | 21 | 67 | 8.0 | 16.1 | 0.00 | 0.00 | 0.00 | 88 | 1020.0 |
| 20260507041351 | 21 | 62 | 4.8 | 17.7 | 0.00 | 0.00 | 0.00 | 88 | 1020.1 |
| 20260507040951 | 21 | 40 | 9.7 | 17.7 | 0.00 | 0.00 | 0.00 | 88 | 1020.1 |
| 20260507040149 | 21 | 50 | 8.0 | 16.1 | 0.00 | 0.00 | 0.00 | 88 | 1020.0 |
| 20260507035331 | 21 | 94 | 9.7 | 17.7 | 0.00 | 0.00 | 0.00 | 88 | 1020.1 |
| 20260507034853 | 21 | 53 | 8.0 | 17.7 | 0.00 | 0.00 | 0.00 | 89 | 1020.1 |
| 20260507034332 | 21 | 96 | 8.0 | 17.7 | 0.00 | 0.00 | 0.00 | 89 | 1020.1 |
| 20260507034153 | 21 | 111 | 6.4 | 17.7 | 0.00 | 0.00 | 0.00 | 89 | 1020.0 |
| 20260507033329 | 21 | 57 | 8.0 | 17.7 | 0.00 | 0.00 | 0.00 | 89 | 1019.9 |
| 20260507033146 | 21 | 92 | 6.4 | 17.7 | 0.00 | 0.00 | 0.00 | 89 | 1019.8 |
| 20260507032324 | 21 | 85 | 6.4 | 12.9 | 0.00 | 0.00 | 0.00 | 89 | 1019.8 |
| 20260507031843 | 21 | 95 | 3.2 | 14.5 | 0.00 | 0.00 | 0.00 | 89 | 1019.7 |
| 20260507031320 | 21 | 94 | 6.4 | 14.5 | 0.00 | 0.00 | 0.00 | 89 | 1019.7 |
| 20260507030820 | 21 | 100 | 9.7 | 14.5 | 0.00 | 0.00 | 0.00 | 89 | 1019.6 |
| 20260507030316 | 21 | 107 | 9.7 | 22.5 | 0.00 | 0.00 | 0.00 | 89 | 1019.6 |
| 20260507025857 | 21 | 84 | 8.0 | 19.3 | 0.00 | 0.00 | 0.00 | 89 | 1019.5 |
| 20260507025852 | 21 | 83 | 11.3 | 20.9 | 0.00 | 0.00 | 0.00 | 89 | 1019.6 |
| 20260507025835 | 21 | 129 | 12.9 | 22.5 | 0.00 | 0.00 | 0.00 | 89 | 1019.6 |
| 20260507024400 | 21 | 66 | 3.2 | 17.7 | 0.00 | 0.00 | 0.00 | 89 | 1019.5 |
| 20260507024336 | 21 | 102 | 9.7 | 16.1 | 0.00 | 0.00 | 0.00 | 89 | 1019.6 |
| 20260507023934 | 21 | 59 | 8.0 | 17.7 | 0.00 | 0.00 | 0.00 | 89 | 1019.6 |
| 20260507022802 | 21 | 81 | 3.2 | 14.5 | 0.00 | 0.00 | 0.00 | 89 | 1019.4 |
| 20260507022302 | 21 | 76 | 3.2 | 12.9 | 0.00 | 0.00 | 0.00 | 89 | 1019.4 |
| 20260507022151 | 21 | 68 | 3.2 | 16.1 | 0.00 | 0.00 | 0.00 | 89 | 1019.4 |
| 20260507021303 | 21 | 86 | 9.7 | 19.3 | 0.00 | 0.00 | 0.00 | 89 | 1019.4 |
| 20260507020803 | 21 | 78 | 9.7 | 19.3 | 0.00 | 0.00 | 0.00 | 89 | 1019.2 |
| 20260507020620 | 21 | 86 | 8.0 | 16.1 | 0.00 | 0.00 | 0.00 | 90 | 1019.4 |
| 20260507015804 | 21 | 59 | 8.0 | 16.1 | 0.00 | 0.00 | 0.00 | 90 | 1019.4 |
| 20260507015623 | 21 | 72 | 9.7 | 14.5 | 0.00 | 0.00 | 0.00 | 90 | 1019.4 |
| 20260507014819 | 21 | 63 | 3.2 | 11.3 | 0.00 | 0.00 | 0.00 | 90 | 1019.2 |
| 20260507014303 | 21 | 55 | 6.4 | 11.3 | 0.00 | 0.00 | 0.00 | 90 | 1019.4 |
| 20260507013803 | 21 | 92 | 4.8 | 16.1 | 0.00 | 0.00 | 0.00 | 90 | 1019.4 |
| 20260507013303 | 21 | 117 | 9.7 | 24.1 | 0.00 | 0.00 | 0.00 | 90 | 1019.2 |
| 20260507012803 | 21 | 123 | 9.7 | 24.1 | 0.00 | 0.00 | 0.00 | 90 | 1019.2 |
| 20260507012306 | 21 | 46 | 8.0 | 22.5 | 0.00 | 0.00 | 0.00 | 89 | 1019.1 |
| 20260507012143 | 21 | 93 | 4.8 | 19.3 | 0.00 | 0.00 | 0.00 | 89 | 1019.0 |
| 20260507011626 | 21 | 63 | 8.0 | 19.3 | 0.00 | 0.00 | 0.00 | 90 | 1019.0 |
| 20260507010805 | 21 | 69 | 8.0 | 17.7 | 0.00 | 0.00 | 0.00 | 90 | 1019.0 |
| 20260507010306 | 21 | 49 | 6.4 | 17.7 | 0.00 | 0.00 | 0.00 | 90 | 1018.9 |
| 20260507005803 | 21 | 44 | 6.4 | 19.3 | 0.00 | 0.00 | 0.00 | 90 | 1018.9 |
| 20260507005305 | 21 | 49 | 8.0 | 19.3 | 0.00 | 0.00 | 0.00 | 90 | 1018.9 |
| 20260507005128 | 21 | 89 | 9.7 | 19.3 | 0.00 | 0.00 | 0.00 | 89 | 1018.9 |
| 20260507004452 | 21 | 67 | 6.4 | 19.3 | 0.00 | 0.00 | 0.00 | 90 | 1018.8 |
| 20260507004411 | 21 | 54 | 8.0 | 19.3 | 0.00 | 0.00 | 0.00 | 90 | 1018.9 |
| 20260507003619 | 21 | 71 | 6.4 | 17.7 | 0.00 | 0.00 | 0.00 | 90 | 1018.7 |
| 20260507002805 | 21 | 101 | 8.0 | 25.7 | 0.00 | 0.00 | 0.00 | 90 | 1018.7 |
| 20260507002306 | 21 | 44 | 17.7 | 25.7 | 0.00 | 0.00 | 0.00 | 89 | 1018.5 |
| 20260507001803 | 21 | 71 | 9.7 | 25.7 | 0.00 | 0.00 | 0.00 | 89 | 1018.5 |
| 20260507001305 | 21 | 62 | 12.9 | 22.5 | 0.00 | 0.00 | 0.00 | 89 | 1018.3 |
| 20260507000805 | 21 | 82 | 11.3 | 20.9 | 0.00 | 0.00 | 0.00 | 89 | 1018.3 |
| 20260507000302 | 21 | 71 | 12.9 | 20.9 | 0.00 | 0.00 | 0.00 | 89 | 1018.2 |
| 20260507000116 | 21 | 59 | 6.4 | 20.9 | 0.00 | 0.00 | 0.00 | 88 | 1018.1 |
| 20260506235255 | 21 | 77 | 14.5 | 20.9 | 0.00 | 0.00 | 0.00 | 88 | 1018.2 |
| 20260506234754 | 21 | 90 | 8.0 | 25.7 | 0.00 | 0.03 | 0.00 | 88 | 1018.1 |
| 20260506234250 | 21 | 77 | 12.9 | 25.7 | 0.00 | 0.03 | 0.00 | 88 | 1018.0 |
| 20260506234057 | 21 | 62 | 11.3 | 20.9 | 0.00 | 0.03 | 0.00 | 87 | 1018.0 |
| 20260506233241 | 21 | 71 | 9.7 | 19.3 | 0.00 | 0.03 | 0.00 | 87 | 1017.9 |
| 20260506232737 | 21 | 81 | 9.7 | 17.7 | 0.00 | 0.03 | 0.00 | 87 | 1017.9 |
| 20260506232233 | 21 | 104 | 6.4 | 20.9 | 0.00 | 0.03 | 0.00 | 87 | 1017.8 |
| 20260506231734 | 22 | 65 | 9.7 | 24.1 | 0.00 | 0.03 | 0.00 | 87 | 1017.8 |
| 20260506231232 | 21 | 116 | 14.5 | 24.1 | 0.00 | 0.05 | 0.00 | 86 | 1017.8 |
| 20260506231112 | 21 | 78 | 11.3 | 24.1 | 0.00 | 0.05 | 0.00 | 87 | 1017.9 |
| 20260506231107 | 21 | 75 | 8.0 | 19.3 | 0.00 | 0.05 | 0.00 | 87 | 1017.9 |
| 20260506230339 | 21 | 109 | 11.3 | 24.1 | 0.00 | 0.05 | 0.00 | 87 | 1017.9 |
| 20260506225226 | 21 | 51 | 12.9 | 24.1 | 0.00 | 0.08 | 0.00 | 87 | 1017.9 |
| 20260506224722 | 21 | 46 | 12.9 | 22.5 | 0.00 | 0.08 | 0.00 | 87 | 1017.9 |
| 20260506224217 | 21 | 76 | 12.9 | 27.4 | 0.00 | 0.10 | 0.00 | 87 | 1017.9 |
| 20260506223718 | 21 | 55 | 16.1 | 27.4 | 0.00 | 0.10 | 0.00 | 87 | 1017.8 |
| 20260506223214 | 21 | 73 | 9.7 | 30.6 | 0.00 | 0.13 | 0.00 | 87 | 1017.6 |
| 20260506222711 | 21 | 113 | 11.3 | 30.6 | 0.00 | 0.13 | 0.00 | 86 | 1017.6 |
| 20260506222205 | 22 | 49 | 14.5 | 24.1 | 0.00 | 0.15 | 0.00 | 86 | 1017.6 |
| 20260506222042 | 22 | 86 | 17.7 | 24.1 | 0.00 | 0.15 | 0.00 | 86 | 1017.5 |
| 20260506221205 | 22 | 98 | 12.9 | 30.6 | 0.00 | 0.15 | 0.00 | 86 | 1017.2 |
| 20260506220706 | 22 | 99 | 14.5 | 30.6 | 0.00 | 0.15 | 0.00 | 86 | 1017.1 |
| 20260506220208 | 22 | 69 | 11.3 | 27.4 | 0.00 | 0.15 | 0.00 | 86 | 1017.1 |
| 20260506215707 | 22 | 93 | 12.9 | 27.4 | 0.00 | 0.15 | 0.00 | 86 | 1017.2 |
| 20260506215208 | 22 | 98 | 11.3 | 27.4 | 0.00 | 0.15 | 0.00 | 87 | 1017.1 |
| 20260506214706 | 22 | 77 | 12.9 | 35.4 | 0.00 | 0.15 | 0.00 | 87 | 1017.0 |
| 20260506214206 | 22 | 72 | 19.3 | 35.4 | 0.00 | 0.15 | 0.00 | 87 | 1017.0 |
| 20260506214034 | 22 | 59 | 12.9 | 30.6 | 0.00 | 0.15 | 0.00 | 87 | 1017.0 |
| 20260506213205 | 22 | 96 | 14.5 | 30.6 | 0.00 | 0.15 | 0.00 | 86 | 1017.0 |
| 20260506212705 | 22 | 51 | 16.1 | 38.6 | 0.00 | 0.15 | 0.00 | 86 | 1017.1 |
| 20260506212206 | 22 | 44 | 22.5 | 41.8 | 0.00 | 0.15 | 0.00 | 86 | 1017.1 |
| 20260506212041 | 22 | 32 | 19.3 | 37.0 | 0.00 | 0.15 | 0.00 | 84 | 1016.9 |
| 20260506211917 | 22 | 61 | 17.7 | 41.8 | 0.00 | 0.15 | 0.00 | 86 | 1017.1 |
| 20260506211227 | 22 | 62 | 19.3 | 41.8 | 0.00 | 0.15 | 0.00 | 85 | 1017.0 |
| 20260506210818 | 22 | 71 | 25.7 | 41.8 | 0.00 | 0.15 | 0.00 | 84 | 1016.9 |
| 20260506205706 | 22 | 62 | 16.1 | 37.0 | 0.00 | 0.15 | 0.00 | 83 | 1016.7 |
| 20260506205332 | 22 | 65 | 22.5 | 38.6 | 0.00 | 0.15 | 0.00 | 83 | 1017.0 |
| 20260506205252 | 22 | 91 | 16.1 | 33.8 | 0.00 | 0.15 | 0.00 | 84 | 1016.8 |
| 20260506204848 | 22 | 71 | 20.9 | 37.0 | 0.00 | 0.15 | 0.00 | 84 | 1016.9 |
| 20260506203705 | 22 | 51 | 19.3 | 38.6 | 0.00 | 0.15 | 0.00 | 82 | 1016.9 |
| 20260506203540 | 23 | 51 | 14.5 | 38.6 | 0.00 | 0.15 | 0.00 | 82 | 1017.0 |
| 20260506203036 | 23 | 93 | 22.5 | 35.4 | 0.00 | 0.15 | 0.00 | 82 | 1017.0 |
| 20260506202205 | 23 | 78 | 19.3 | 35.4 | 0.00 | 0.15 | 0.00 | 82 | 1017.3 |
| 20260506201705 | 23 | 99 | 17.7 | 33.8 | 0.00 | 0.15 | 0.00 | 81 | 1017.2 |
| 20260506201615 | 24 | 89 | 20.9 | 33.8 | 0.00 | 0.15 | 0.00 | 79 | 1017.5 |
| 20260506200706 | 24 | 72 | 17.7 | 33.8 | 0.00 | 0.15 | 0.00 | 78 | 1017.3 |
| 20260506200533 | 25 | 69 | 17.7 | 33.8 | 0.00 | 0.15 | 0.00 | 75 | 1017.2 |
| 20260506195658 | 25 | 106 | 17.7 | 40.2 | 0.00 | 0.15 | 0.00 | 72 | 1017.2 |
| 20260506195153 | 26 | 69 | 24.1 | 40.2 | 0.00 | 0.15 | 0.00 | 69 | 1017.5 |
| 20260506194654 | 27 | 38 | 16.1 | 38.6 | 0.00 | 0.15 | 0.00 | 67 | 1017.5 |
| 20260506194154 | 27 | 48 | 16.1 | 32.2 | 0.00 | 0.15 | 0.00 | 67 | 1017.2 |
| 20260506193649 | 26 | 61 | 20.9 | 32.2 | 0.00 | 0.15 | 0.00 | 66 | 1017.1 |
| 20260506193150 | 27 | 96 | 14.5 | 32.2 | 0.00 | 0.15 | 0.00 | 66 | 1017.1 |
| 20260506192646 | 27 | 95 | 17.7 | 32.2 | 0.00 | 0.15 | 0.00 | 65 | 1017.3 |
| 20260506192147 | 27 | 90 | 16.1 | 25.7 | 0.00 | 0.15 | 0.00 | 66 | 1017.6 |
| 20260506191642 | 26 | 51 | 12.9 | 30.6 | 0.00 | 0.15 | 0.00 | 66 | 1017.7 |
| 20260506191138 | 26 | 104 | 12.9 | 30.6 | 0.00 | 0.15 | 0.00 | 66 | 1017.8 |
| 20260506190841 | 26 | 62 | 14.5 | 30.6 | 0.00 | 0.15 | 0.00 | 66 | 1018.0 |
| 20260506190751 | 26 | 87 | 16.1 | 30.6 | 0.00 | 0.15 | 0.00 | 65 | 1017.9 |
| 20260506185637 | 26 | 32 | 20.9 | 30.6 | 0.00 | 0.15 | 0.00 | 68 | 1018.0 |
| 20260506185134 | 26 | 130 | 11.3 | 32.2 | 0.00 | 0.15 | 0.00 | 68 | 1018.0 |
| 20260506184633 | 26 | 78 | 20.9 | 33.8 | 0.00 | 0.15 | 0.00 | 69 | 1018.3 |
| 20260506184133 | 26 | 74 | 19.3 | 33.8 | 0.00 | 0.15 | 0.00 | 67 | 1018.5 |
| 20260506183957 | 26 | 74 | 16.1 | 38.6 | 0.00 | 0.15 | 0.00 | 67 | 1018.5 |
| 20260506183458 | 27 | 66 | 17.7 | 38.6 | 0.00 | 0.15 | 0.00 | 66 | 1018.5 |
| 20260506182634 | 26 | 79 | 14.5 | 33.8 | 0.00 | 0.15 | 0.00 | 68 | 1018.5 |
| 20260506182133 | 26 | 90 | 9.7 | 33.8 | 0.00 | 0.15 | 0.00 | 69 | 1018.7 |
| 20260506181633 | 26 | 140 | 11.3 | 27.4 | 0.00 | 0.15 | 0.00 | 69 | 1018.7 |
| 20260506181542 | 26 | 62 | 16.1 | 29.0 | 0.00 | 0.15 | 0.00 | 69 | 1018.7 |
| 20260506180632 | 26 | 123 | 17.7 | 29.0 | 0.00 | 0.15 | 0.00 | 69 | 1018.7 |
| 20260506180145 | 26 | 44 | 14.5 | 30.6 | 0.00 | 0.15 | 0.00 | 70 | 1018.8 |
| 20260506175632 | 26 | 55 | 17.7 | 30.6 | 0.00 | 0.15 | 0.00 | 70 | 1018.8 |
| 20260506175508 | 26 | 42 | 17.7 | 33.8 | 0.00 | 0.15 | 0.00 | 69 | 1018.9 |
| 20260506174635 | 26 | 115 | 24.1 | 33.8 | 0.00 | 0.15 | 0.00 | 68 | 1019.1 |
| 20260506174132 | 26 | 82 | 14.5 | 27.4 | 0.00 | 0.15 | 0.00 | 70 | 1019.1 |
| 20260506173632 | 26 | 53 | 16.1 | 33.8 | 0.00 | 0.15 | 0.00 | 70 | 1019.1 |
| 20260506173133 | 25 | 95 | 14.5 | 33.8 | 0.00 | 0.15 | 0.00 | 72 | 1019.2 |
| 20260506172633 | 25 | 61 | 14.5 | 30.6 | 0.00 | 0.15 | 0.00 | 72 | 1019.5 |
| 20260506172133 | 25 | 65 | 17.7 | 32.2 | 0.00 | 0.15 | 0.00 | 73 | 1019.4 |
| 20260506171950 | 24 | 90 | 12.9 | 27.4 | 0.00 | 0.15 | 0.00 | 75 | 1019.6 |
| 20260506171942 | 25 | 56 | 19.3 | 29.0 | 0.00 | 0.15 | 0.00 | 73 | 1019.6 |
| 20260506171829 | 25 | 56 | 16.1 | 32.2 | 0.00 | 0.15 | 0.00 | 72 | 1019.6 |
| 20260506171205 | 25 | 50 | 9.7 | 29.0 | 0.00 | 0.15 | 0.00 | 73 | 1019.6 |
| 20260506165631 | 24 | 88 | 17.7 | 32.2 | 0.00 | 0.15 | 0.00 | 75 | 1019.6 |
| 20260506165338 | 25 | 73 | 14.5 | 30.6 | 0.00 | 0.15 | 0.00 | 74 | 1019.6 |
| 20260506165245 | 25 | 88 | 16.1 | 32.2 | 0.00 | 0.15 | 0.00 | 75 | 1019.6 |
| 20260506164149 | 25 | 65 | 17.7 | 27.4 | 0.00 | 0.15 | 0.00 | 75 | 1019.6 |
| 20260506163632 | 24 | 113 | 17.7 | 30.6 | 0.00 | 0.15 | 0.00 | 76 | 1019.6 |
| 20260506163139 | 24 | 75 | 16.1 | 30.6 | 0.00 | 0.15 | 0.00 | 78 | 1019.5 |
| 20260506162636 | 23 | 53 | 16.1 | 30.6 | 0.00 | 0.15 | 0.00 | 78 | 1019.6 |
| 20260506162140 | 23 | 61 | 20.9 | 33.8 | 0.00 | 0.15 | 0.00 | 78 | 1019.6 |